SCP
-0 -0 -0 -0 0 -0 0 0 0 -0 -0 -0 -0 0 0 -0 0 0 -0 0 1 2 1 6 2 1 1 0 0 0 0 0 0 0 0 0 0 0 0 0 0 0 0 0
-0 -0 0 0 0 0 -0 -0 -0 -0 -0 -0 -0 -0 -0 0 0 0 0 0 1 1 1 1 0 0 0 0 0 0 0 0 0 0 0 0 0 0 0 0 0 0 0 0
0 -0 -0 0 -0 -0 0 0 -0 -0 -0 -0 -0 0 0 -0 0 0 0 0 0 1 0 0 1 0 0 0 0 0 0 0 0 0 0 0 0 0 0 0 0 0 0 0
0 0 -0 -0 0 -0 -0 0 0 0 -0 0 -0 -0 -0 -0 0 0 0 -0 -0 1 1 2 0 0 0 0 0 0 -0 -0 -0 -0 0 0 0 0 0 0 0 0 0 0
0 0 0 0 -0 -0 0 0 -0 0 0 0 0 0 -0 -0 -0 0 0 -0 0 1 1 1 0 0 0 0 -0 -0 -0 -0 -0 -0 0 0 0 0 0 0 0 0 -0 -0
0 0 0 0 0 0 -0 0 -0 0 0 0 0 -0 0 0 0 0 0 0 0 0 1 1 0 0 0 0 -0 -0 -0 -0 -0 -0 -0 -0 -0 0 0 0 0 0 -0 -0
0 0 0 -0 -0 0 -0 0 0 0 0 0 0 0 0 0 0 0 -0 0 0 0 1 1 0 0 -0 -0 -0 0 0 -0 -0 -0 0 0 0 0 -0 -0 0 0 -0 -0
0 0 0 0 -0 0 0 -0 -0 0 0 0 0 0 0 0 0 -0 -0 0 1 0 0 1 0 -0 -0 -0 0 -0 -0 -0 -0 -0 -0 0 -0 -0 -0 0 0 0 -0 -0
0 0 0 -0 -0 -0 -0 -0 0 -0 0 0 0 0 0 0 0 -0 -0 0 0 0 1 0 -0 -0 -0 0 -0 -0 -0 -0 -0 -0 0 -0 -0 0 0 0 0 0 -0 -0
0 0 -0 -0 0 -0 -0 -0 0 -0 0 0 0 0 0 0 0 -0 -0 0 0 1 0 0 0 0 0 -0 -0 -0 0 -0 -0 0 -0 -0 0 -0 0 0 0 0 -0 -0
0 0 -0 0 0 -0 -0 0 0 0 0 0 0 0 0 0 0 0 0 0 0 0 0 0 0 0 0 0 -0 -0 -0 -0 0 0 -0 -0 -0 0 0 0 0 0 -0 -0
0 -0 0 -0 -0 -0 0 0 0 0 0 0 0 0 0 0 0 0 0 0 0 0 0 0 0 0 -0 -0 -0 -0 0 0 0 0 -0 -0 -0 0 -0 -0 -0 -0 0 0
0 -0 -0 0 -0 0 0 0 0 0 0 0 0 0 0 0 0 -0 0 -0 0 0 0 0 0 -0 0 -0 -0 -0 0 -0 -0 -0 -0 0 0 0 0 0 -0 -0 -0 -0
0 -0 -0 -0 0 0 0 0 0 0 0 0 0 0 0 0 0 0 0 -0 0 0 -0 -0 -0 -0 -0 0 0 -0 -0 0 -0 -0 -0 0 0 0 -0 -0 0 0 -0 -0
-0 0 -0 -0 -0 0 0 0 0 0 0 0 0 0 0 0 0 0 0 0 0 0 0 0 0 0 -0 -0 0 0 -0 -0 -0 -0 0 -0 0 -0 -0 0 -0 -0 0 0
0 0 -0 -0 -0 0 0 0 0 0 0 0 0 0 0 0 0 0 0 0 0 0 0 -0 -0 0 0 0 0 -0 0 -0 -0 0 -0 -0 -0 -0 -0 0 -0 -0 -0 -0
0 0 0 0 0 0 0 0 0 0 0 0 0 0 0 0 0 0 0 -0 -0 -0 -0 -0 0 0 0 0 0 0 0 0 0 -0 0 0 -0 -0 -0 -0 -0 -0 0 0
-0 -0 0 0 0 0 0 0 0 0 0 0 0 0 0 0 0 0 0 0 -0 -0 -0 0 0 0 0 0 0 0 0 0 0 0 0 0 -0 -0 0 0 0 -0 -0 -0
-0 -0 -0 0 0 0 0 0 0 0 0 0 0 0 0 0 0 0 0 -0 -0 -0 -0 0 0 0 0 0 0 0 0 0 0 0 0 0 0 0 0 0 0 0 -0 -0
-0 -0 -0 -0 -0 0 0 0 0 0 0 0 0 0 0 0 0 0 0 0 0 0 -0 -0 0 0 0 0 0 0 0 0 0 0 0 -0 -0 0 -0 -0 -0 -0 0 -0
-0 -0 -0 -0 -0 -0 -0 -0 0 0 0 0 0 0 0 -0 0 0 0 0 0 -0 0 -0 -0 0 0 0 0 0 0 0 0 0 0 0 0 0 0 0 0 0 0 0
-0 0 -0 -0 -0 -0 -0 -0 -0 -0 0 0 0 0 0 0 0 0 0 0 0 0 0 -0 0 0 0 0 0 0 0 0 0 0 0 0 0 0 0 0 0 0 0 0
0 -0 -0 -0 -0 -0 -0 -0 -0 -0 -0 0 0 0 0 0 0 0 0 0 0 0 0 0 0 0 0 0 0 0 0 0 0 0 0 0 0 0 0 0 0 0 0 0
-0 -0 -0 -0 0 -0 -0 -0 -0 -0 -0 -0 -0 -0 0 0 0 0 0 0 0 0 0 0 0 0 0 0 0 0 0 0 0 0 0 0 0 0 0 0 0 0 0 0
-0 0 -0 0 0 0 -0 -0 -0 -0 -0 -0 -0 0 0 0 0 0 0 0 0 0 0 0 0 0 0 0 0 0 0 0 0 0 0 0 0 0 0 0 0 0 0 0
0 0 -0 -0 -0 -0 -0 -0 -0 -0 -0 -0 -0 -0 -0 -0 0 0 0 0 0 0 0 0 0 0 0 0 0 0 0 0 0 0 0 0 0 0 0 0 0 0 0 0
-0 -0 -0 -0 -0 -0 -0 -0 -0 -0 0 -0 -0 -0 -0 0 0 0 0 0 0 0 0 0 0 0 0 0 0 0 0 0 0 0 0 0 0 0 0 0 0 0 0 0
Wind_Speed_500mb
50 52 48 50 38 46 52 44 37 28 35 10 11 27 54 92 84 38 15 8 17 18 29 43 68 65 63 60 57 59 46 50 45 43 40 37 36 33 33 32 31 28 23 26
44 45 44 49 51 59 60 61 37 34 29 19 32 48 62 65 46 32 19 17 17 2 12 68 68 64 65 60 57 53 51 45 38 36 36 36 34 32 34 32 28 26 23 19
23 34 28 33 48 52 52 41 38 30 22 18 16 34 39 27 30 26 32 11 18 17 58 46 54 59 60 56 49 47 43 41 39 36 35 35 34 33 33 30 28 24 19 15
16 24 19 12 30 43 36 33 36 26 15 26 30 41 34 28 36 31 29 11 22 17 29 22 58 57 54 48 43 42 41 37 42 38 34 33 36 30 32 30 29 28 20 13
7 13 31 30 19 24 20 37 51 28 28 26 32 22 22 32 37 35 30 15 19 34 28 43 52 52 48 47 45 41 48 37 29 25 29 38 38 31 29 29 23 22 14 11
8 10 8 8 25 43 20 28 41 41 38 38 24 14 14 28 20 15 15 31 28 41 36 41 52 51 49 48 44 43 38 29 35 31 37 34 37 28 26 21 25 20 19 12
16 13 14 19 29 34 11 18 49 45 45 65 20 17 29 48 22 24 22 3 31 42 49 44 57 51 46 55 42 31 29 33 38 33 39 37 33 27 20 25 21 20 18 12
6 8 4 35 31 9 31 74 60 64 59 58 55 33 28 42 37 26 24 23 54 68 59 55 57 50 54 45 39 39 43 38 47 35 33 31 25 24 27 21 26 21 17 12
7 7 21 49 37 49 49 65 70 60 66 53 60 39 40 39 54 23 25 25 57 69 58 58 54 52 53 47 45 41 39 35 31 29 32 30 24 25 22 21 20 20 16 10
4 7 12 48 19 29 52 58 49 37 42 43 54 49 49 46 58 21 20 22 62 70 62 55 44 49 42 49 44 50 42 33 30 34 31 23 21 28 26 23 23 28 24 20
13 18 38 7 34 40 52 39 27 15 15 35 44 54 47 45 25 24 19 41 70 67 62 54 53 50 53 35 51 43 40 36 29 27 24 21 18 20 19 24 21 20 21 17
6 26 20 18 39 45 42 35 24 20 22 21 29 17 16 19 19 19 60 80 73 46 63 54 56 54 44 43 41 38 41 36 41 33 24 20 19 25 21 21 20 21 19 14
4 27 20 25 39 32 35 24 24 18 18 31 27 26 22 29 29 54 42 93 61 45 60 59 55 61 42 47 45 35 32 32 39 40 28 25 17 20 30 30 25 24 26 16
20 27 19 36 17 31 32 29 24 15 24 33 33 40 35 34 34 41 35 68 55 58 53 67 61 55 53 50 41 30 31 29 29 31 33 32 28 20 27 27 25 22 16 16
29 26 23 25 28 33 33 30 35 39 33 39 31 37 35 26 50 57 36 64 67 54 39 61 48 46 39 45 48 20 32 28 34 38 34 29 33 28 28 30 21 28 28 30
19 26 30 35 33 33 34 35 41 41 41 34 36 40 31 21 39 35 39 69 65 60 62 56 52 37 32 39 43 26 20 21 35 39 31 35 36 35 33 27 29 29 27 27
20 33 32 43 34 29 38 32 35 41 43 41 33 19 13 31 50 42 40 47 50 47 47 42 47 49 42 40 46 31 23 34 24 36 36 35 33 39 40 37 35 28 26 26
20 23 29 35 33 25 28 34 42 43 38 36 38 24 11 34 40 32 33 34 34 32 35 27 35 42 34 26 23 12 31 28 16 14 39 39 36 28 38 49 43 33 39 42
20 24 29 34 31 31 27 40 39 41 36 33 33 38 46 42 36 31 26 31 30 28 27 26 24 34 25 15 10 15 30 27 19 9 45 40 34 28 28 60 50 39 45 44
22 23 26 30 34 35 34 28 35 41 47 47 41 31 31 46 38 37 33 38 36 31 27 29 28 27 26 14 18 21 16 39 36 37 43 40 38 46 45 59 59 46 35 34
23 22 23 27 31 34 34 31 28 31 34 41 44 48 50 36 30 35 38 39 39 36 31 23 25 29 23 17 22 28 27 29 42 43 42 42 46 44 52 56 59 60 51 46
19 20 21 24 29 34 32 34 35 29 34 40 32 23 29 42 44 42 38 37 31 30 30 28 23 12 14 9 9 13 16 21 26 32 36 35 34 38 40 48 50 45 42 37
19 18 18 22 27 30 30 32 34 34 33 36 37 38 45 50 48 46 45 36 28 23 24 23 21 17 7 10 19 22 18 19 25 29 33 36 37 37 38 37 37 35 32 29
22 18 16 17 19 24 29 27 31 35 33 32 32 37 45 54 61 64 58 39 29 22 21 20 21 20 26 29 31 37 34 30 30 31 32 32 38 39 36 36 36 38 35 33
23 17 10 14 18 18 19 17 28 28 31 35 33 33 39 43 52 52 51 51 56 40 42 36 33 38 39 34 43 47 52 55 47 47 54 58 60 59 59 59 57 54 52 50
23 19 12 9 15 13 14 14 19 19 23 28 29 28 33 38 42 48 51 53 58 60 52 50 61 63 64 63 60 60 61 63 66 61 56 59 59 60 58 57 53 49 49 48
24 21 19 15 13 14 13 15 18 19 20 24 29 28 32 30 29 30 31 39 45 47 51 54 57 56 58 62 66 62 59 60 61 62 60 60 52 54 51 48 46 47 48 46
Wind_Direction_500mb
262 268 268 275 245 271 275 272 275 279 289 9 250 276 273 274 290 331 34 229 237 256 169 146 143 148 144 141 141 140 144 149 148 151 151 148 151 151 152 155 153 149 160 161
271 270 264 261 267 232 245 249 273 269 272 251 177 234 267 274 293 314 350 350 268 46 114 141 142 147 141 137 138 142 143 148 147 149 151 154 150 152 150 148 159 165 172 187
278 271 280 272 255 253 262 264 268 269 286 297 225 245 256 280 287 296 300 325 337 184 138 145 142 136 129 135 140 144 146 150 153 156 160 157 156 154 154 162 165 169 166 187
285 303 267 265 328 313 275 298 278 270 279 283 256 249 267 276 272 282 285 280 340 206 154 116 140 132 133 138 143 148 151 150 162 162 164 164 163 156 162 171 168 144 157 172
268 269 296 314 353 341 12 322 311 307 274 280 281 287 272 258 259 266 276 238 290 211 169 145 139 134 143 146 149 150 143 149 148 169 166 157 157 162 171 178 165 160 150 151
315 277 275 44 8 350 338 309 358 5 353 321 279 262 260 294 252 242 241 247 231 200 180 150 142 146 153 156 151 130 142 148 158 154 163 177 165 170 174 175 152 144 139 144
251 252 270 33 2 330 254 297 333 333 337 317 340 336 334 298 358 323 335 187 210 179 173 151 151 160 165 137 134 144 148 164 159 136 152 164 166 170 155 144 155 150 140 139
262 265 250 5 337 270 331 316 310 301 288 302 313 310 299 292 302 308 314 325 187 172 168 153 157 172 141 139 141 140 140 141 138 140 147 160 166 168 168 166 171 156 139 131
220 265 319 307 292 290 293 286 288 266 272 286 297 299 291 282 289 282 303 282 183 168 159 156 167 147 138 142 145 145 148 142 148 164 166 170 164 163 183 188 176 156 165 171
284 228 277 315 315 306 310 305 322 238 249 267 290 286 285 284 292 284 282 239 174 155 154 161 164 147 147 152 139 143 130 127 144 147 162 168 183 189 180 181 176 179 182 176
279 323 316 272 340 319 319 331 342 337 278 280 284 291 275 277 307 313 266 155 162 157 156 162 144 145 148 134 135 130 133 148 147 144 161 169 165 158 181 185 186 176 176 181
296 318 313 307 339 339 328 336 345 341 335 325 314 311 339 336 332 161 139 144 184 162 150 157 141 154 143 141 139 140 148 158 152 148 147 134 137 138 130 140 141 140 147 153
348 5 333 335 327 350 340 348 356 356 357 359 28 24 42 46 45 141 160 159 174 161 149 149 143 147 145 148 151 152 146 146 152 152 142 135 125 136 141 137 135 134 143 143
38 5 343 336 347 7 9 4 10 16 36 33 39 66 81 81 70 101 111 208 175 139 163 150 148 154 163 160 148 152 167 159 157 157 141 144 143 126 130 132 145 151 146 137
37 9 347 13 40 16 14 16 24 34 36 40 44 69 77 96 101 95 56 111 131 144 153 143 140 151 160 163 156 144 159 159 165 165 149 133 139 130 130 141 134 141 140 139
20 19 10 27 46 30 23 20 28 30 40 39 48 60 58 65 98 126 84 117 128 121 121 122 107 117 116 160 144 160 141 135 165 147 145 140 136 141 147 142 119 124 136 144
13 29 17 19 51 44 33 31 28 33 41 44 49 70 104 109 111 150 98 112 115 113 118 127 107 118 127 130 144 163 163 147 165 169 167 155 132 150 153 148 130 135 120 130
50 36 23 29 35 47 54 48 46 37 43 53 70 94 150 104 95 96 106 114 121 123 136 123 114 131 147 141 141 106 150 172 162 199 158 163 143 145 155 151 147 130 120 123
51 46 40 38 43 44 55 41 55 53 50 50 58 56 54 74 87 94 96 110 118 121 123 131 150 155 163 162 125 68 156 176 174 213 139 134 153 142 145 169 149 136 130 134
69 49 49 45 52 51 51 51 47 51 56 50 54 66 75 78 79 89 97 96 96 99 115 116 127 161 171 162 158 148 138 114 115 129 123 118 120 101 108 127 142 128 122 122
68 60 55 54 56 57 56 57 55 57 57 61 51 46 54 71 81 90 95 93 92 99 100 101 116 147 155 155 170 174 179 135 139 136 128 125 129 127 121 135 140 144 147 141
72 65 61 60 57 60 57 59 60 61 61 57 50 59 65 70 70 74 82 87 91 98 109 114 108 129 170 163 162 171 151 152 147 143 141 146 145 137 136 136 143 148 149 146
90 73 62 66 64 67 61 58 64 61 66 60 66 63 70 74 77 79 78 79 87 97 111 110 109 129 128 166 167 176 166 140 133 129 126 125 124 124 123 120 121 127 125 121
112 89 81 76 75 73 70 64 68 73 75 72 73 72 82 81 80 75 72 75 81 87 92 86 97 129 132 129 131 124 124 129 132 129 124 120 115 115 116 114 111 108 108 108
131 119 126 101 80 80 83 82 70 71 75 80 84 80 80 80 78 79 76 75 75 79 86 91 105 121 119 125 126 124 123 119 120 125 123 118 114 112 111 111 108 105 101 98
153 142 136 132 101 101 98 94 87 85 84 83 79 77 71 71 77 76 79 79 79 77 83 98 104 100 102 103 103 103 106 109 111 112 112 111 108 107 103 98 97 95 95 93
168 164 165 141 135 127 116 113 108 103 96 95 96 95 95 95 88 93 93 90 88 92 90 84 89 94 98 98 94 93 92 91 95 100 101 102 103 100 98 96 99 99 98 97
Wind_Speed_850mb
50 52 48 50 38 46 52 44 37 28 35 10 11 27 54 92 84 38 15 8 17 18 29 43 68 65 63 60 57 59 46 50 45 43 40 37 36 33 33 32 31 28 23 26
44 45 44 49 51 59 60 61 37 34 29 19 32 48 62 65 46 32 19 17 17 2 12 68 68 64 65 60 57 53 51 45 38 36 36 36 34 32 34 32 28 26 23 19
23 34 28 33 48 52 52 41 38 30 22 18 16 34 39 27 30 26 32 11 18 17 58 46 54 59 60 56 49 47 43 41 39 36 35 35 34 33 33 30 28 24 19 15
16 24 19 12 30 43 36 33 36 26 15 26 30 41 34 28 36 31 29 11 22 17 29 22 58 57 54 48 43 42 41 37 42 38 34 33 36 30 32 30 29 28 20 13
7 13 31 30 19 24 20 37 51 28 28 26 32 22 22 32 37 35 30 15 19 34 28 43 52 52 48 47 45 41 48 37 29 25 29 38 38 31 29 29 23 22 14 11
8 10 8 8 25 43 20 28 41 41 38 38 24 14 14 28 20 15 15 31 28 41 36 41 52 51 49 48 44 43 38 29 35 31 37 34 37 28 26 21 25 20 19 12
16 13 14 19 29 34 11 18 49 45 45 65 20 17 29 48 22 24 22 3 31 42 49 44 57 51 46 55 42 31 29 33 38 33 39 37 33 27 20 25 21 20 18 12
6 8 4 35 31 9 31 74 60 64 59 58 55 33 28 42 37 26 24 23 54 68 59 55 57 50 54 45 39 39 43 38 47 35 33 31 25 24 27 21 26 21 17 12
7 7 21 49 37 49 49 65 70 60 66 53 60 39 40 39 54 23 25 25 57 69 58 58 54 52 53 47 45 41 39 35 31 29 32 30 24 25 22 21 20 20 16 10
4 7 12 48 19 29 52 58 49 37 42 43 54 49 49 46 58 21 20 22 62 70 62 55 44 49 42 49 44 50 42 33 30 34 31 23 21 28 26 23 23 28 24 20
13 18 38 7 34 40 52 39 27 15 15 35 44 54 47 45 25 24 19 41 70 67 62 54 53 50 53 35 51 43 40 36 29 27 24 21 18 20 19 24 21 20 21 17
6 26 20 18 39 45 42 35 24 20 22 21 29 17 16 19 19 19 60 80 73 46 63 54 56 54 44 43 41 38 41 36 41 33 24 20 19 25 21 21 20 21 19 14
4 27 20 25 39 32 35 24 24 18 18 31 27 26 22 29 29 54 42 93 61 45 60 59 55 61 42 47 45 35 32 32 39 40 28 25 17 20 30 30 25 24 26 16
20 27 19 36 17 31 32 29 24 15 24 33 33 40 35 34 34 41 35 68 55 58 53 67 61 55 53 50 41 30 31 29 29 31 33 32 28 20 27 27 25 22 16 16
29 26 23 25 28 33 33 30 35 39 33 39 31 37 35 26 50 57 36 64 67 54 39 61 48 46 39 45 48 20 32 28 34 38 34 29 33 28 28 30 21 28 28 30
19 26 30 35 33 33 34 35 41 41 41 34 36 40 31 21 39 35 39 69 65 60 62 56 52 37 32 39 43 26 20 21 35 39 31 35 36 35 33 27 29 29 27 27
20 33 32 43 34 29 38 32 35 41 43 41 33 19 13 31 50 42 40 47 50 47 47 42 47 49 42 40 46 31 23 34 24 36 36 35 33 39 40 37 35 28 26 26
20 23 29 35 33 25 28 34 42 43 38 36 38 24 11 34 40 32 33 34 34 32 35 27 35 42 34 26 23 12 31 28 16 14 39 39 36 28 38 49 43 33 39 42
20 24 29 34 31 31 27 40 39 41 36 33 33 38 46 42 36 31 26 31 30 28 27 26 24 34 25 15 10 15 30 27 19 9 45 40 34 28 28 60 50 39 45 44
22 23 26 30 34 35 34 28 35 41 47 47 41 31 31 46 38 37 33 38 36 31 27 29 28 27 26 14 18 21 16 39 36 37 43 40 38 46 45 59 59 46 35 34
23 22 23 27 31 34 34 31 28 31 34 41 44 48 50 36 30 35 38 39 39 36 31 23 25 29 23 17 22 28 27 29 42 43 42 42 46 44 52 56 59 60 51 46
19 20 21 24 29 34 32 34 35 29 34 40 32 23 29 42 44 42 38 37 31 30 30 28 23 12 14 9 9 13 16 21 26 32 36 35 34 38 40 48 50 45 42 37
19 18 18 22 27 30 30 32 34 34 33 36 37 38 45 50 48 46 45 36 28 23 24 23 21 17 7 10 19 22 18 19 25 29 33 36 37 37 38 37 37 35 32 29
22 18 16 17 19 24 29 27 31 35 33 32 32 37 45 54 61 64 58 39 29 22 21 20 21 20 26 29 31 37 34 30 30 31 32 32 38 39 36 36 36 38 35 33
23 17 10 14 18 18 19 17 28 28 31 35 33 33 39 43 52 52 51 51 56 40 42 36 33 38 39 34 43 47 52 55 47 47 54 58 60 59 59 59 57 54 52 50
23 19 12 9 15 13 14 14 19 19 23 28 29 28 33 38 42 48 51 53 58 60 52 50 61 63 64 63 60 60 61 63 66 61 56 59 59 60 58 57 53 49 49 48
24 21 19 15 13 14 13 15 18 19 20 24 29 28 32 30 29 30 31 39 45 47 51 54 57 56 58 62 66 62 59 60 61 62 60 60 52 54 51 48 46 47 48 46
Wind_Direction_850mb
262 268 268 275 245 271 275 272 275 279 289 9 250 276 273 274 290 331 34 229 237 256 169 146 143 148 144 141 141 140 144 149 148 151 151 148 151 151 152 155 153 149 160 161
271 270 264 261 267 232 245 249 273 269 272 251 177 234 267 274 293 314 350 350 268 46 114 141 142 147 141 137 138 142 143 148 147 149 151 154 150 152 150 148 159 165 172 187
278 271 280 272 255 253 262 264 268 269 286 297 225 245 256 280 287 296 300 325 337 184 138 145 142 136 129 135 140 144 146 150 153 156 160 157 156 154 154 162 165 169 166 187
285 303 267 265 328 313 275 298 278 270 279 283 256 249 267 276 272 282 285 280 340 206 154 116 140 132 133 138 143 148 151 150 162 162 164 164 163 156 162 171 168 144 157 172
268 269 296 314 353 341 12 322 311 307 274 280 281 287 272 258 259 266 276 238 290 211 169 145 139 134 143 146 149 150 143 149 148 169 166 157 157 162 171 178 165 160 150 151
315 277 275 44 8 350 338 309 358 5 353 321 279 262 260 294 252 242 241 247 231 200 180 150 142 146 153 156 151 130 142 148 158 154 163 177 165 170 174 175 152 144 139 144
251 252 270 33 2 330 254 297 333 333 337 317 340 336 334 298 358 323 335 187 210 179 173 151 151 160 165 137 134 144 148 164 159 136 152 164 166 170 155 144 155 150 140 139
262 265 250 5 337 270 331 316 310 301 288 302 313 310 299 292 302 308 314 325 187 172 168 153 157 172 141 139 141 140 140 141 138 140 147 160 166 168 168 166 171 156 139 131
220 265 319 307 292 290 293 286 288 266 272 286 297 299 291 282 289 282 303 282 183 168 159 156 167 147 138 142 145 145 148 142 148 164 166 170 164 163 183 188 176 156 165 171
284 228 277 315 315 306 310 305 322 238 249 267 290 286 285 284 292 284 282 239 174 155 154 161 164 147 147 152 139 143 130 127 144 147 162 168 183 189 180 181 176 179 182 176
279 323 316 272 340 319 319 331 342 337 278 280 284 291 275 277 307 313 266 155 162 157 156 162 144 145 148 134 135 130 133 148 147 144 161 169 165 158 181 185 186 176 176 181
296 318 313 307 339 339 328 336 345 341 335 325 314 311 339 336 332 161 139 144 184 162 150 157 141 154 143 141 139 140 148 158 152 148 147 134 137 138 130 140 141 140 147 153
348 5 333 335 327 350 340 348 356 356 357 359 28 24 42 46 45 141 160 159 174 161 149 149 143 147 145 148 151 152 146 146 152 152 142 135 125 136 141 137 135 134 143 143
38 5 343 336 347 7 9 4 10 16 36 33 39 66 81 81 70 101 111 208 175 139 163 150 148 154 163 160 148 152 167 159 157 157 141 144 143 126 130 132 145 151 146 137
37 9 347 13 40 16 14 16 24 34 36 40 44 69 77 96 101 95 56 111 131 144 153 143 140 151 160 163 156 144 159 159 165 165 149 133 139 130 130 141 134 141 140 139
20 19 10 27 46 30 23 20 28 30 40 39 48 60 58 65 98 126 84 117 128 121 121 122 107 117 116 160 144 160 141 135 165 147 145 140 136 141 147 142 119 124 136 144
13 29 17 19 51 44 33 31 28 33 41 44 49 70 104 109 111 150 98 112 115 113 118 127 107 118 127 130 144 163 163 147 165 169 167 155 132 150 153 148 130 135 120 130
50 36 23 29 35 47 54 48 46 37 43 53 70 94 150 104 95 96 106 114 121 123 136 123 114 131 147 141 141 106 150 172 162 199 158 163 143 145 155 151 147 130 120 123
51 46 40 38 43 44 55 41 55 53 50 50 58 56 54 74 87 94 96 110 118 121 123 131 150 155 163 162 125 68 156 176 174 213 139 134 153 142 145 169 149 136 130 134
69 49 49 45 52 51 51 51 47 51 56 50 54 66 75 78 79 89 97 96 96 99 115 116 127 161 171 162 158 148 138 114 115 129 123 118 120 101 108 127 142 128 122 122
68 60 55 54 56 57 56 57 55 57 57 61 51 46 54 71 81 90 95 93 92 99 100 101 116 147 155 155 170 174 179 135 139 136 128 125 129 127 121 135 140 144 147 141
72 65 61 60 57 60 57 59 60 61 61 57 50 59 65 70 70 74 82 87 91 98 109 114 108 129 170 163 162 171 151 152 147 143 141 146 145 137 136 136 143 148 149 146
90 73 62 66 64 67 61 58 64 61 66 60 66 63 70 74 77 79 78 79 87 97 111 110 109 129 128 166 167 176 166 140 133 129 126 125 124 124 123 120 121 127 125 121
112 89 81 76 75 73 70 64 68 73 75 72 73 72 82 81 80 75 72 75 81 87 92 86 97 129 132 129 131 124 124 129 132 129 124 120 115 115 116 114 111 108 108 108
131 119 126 101 80 80 83 82 70 71 75 80 84 80 80 80 78 79 76 75 75 79 86 91 105 121 119 125 126 124 123 119 120 125 123 118 114 112 111 111 108 105 101 98
153 142 136 132 101 101 98 94 87 85 84 83 79 77 71 71 77 76 79 79 79 77 83 98 104 100 102 103 103 103 106 109 111 112 112 111 108 107 103 98 97 95 95 93
168 164 165 141 135 127 116 113 108 103 96 95 96 95 95 95 88 93 93 90 88 92 90 84 89 94 98 98 94 93 92 91 95 100 101 102 103 100 98 96 99 99 98 97